Change the Weather History Date:

Saturday, March 30, 2013

  Actual Average (KCEW) Record (KCEW)
Temperature  
Mean Temperature 62 °F -  
Max Temperature 77 °F 76 °F 86 °F (1978)
Min Temperature 46 °F 54 °F 35 °F (1950)
Degree Days  
Heating Degree Days 4    
Growing Degree Days 12 (Base 50)    
Moisture  
Dew Point 48 °F    
Average Humidity 61    
Maximum Humidity 83    
Minimum Humidity 33    
Precipitation  
Precipitation 0.00 in - - ()
Sea Level Pressure  
Sea Level Pressure 30.14 in    
Wind  
Wind Speed 3 mph (SW)    
Max Wind Speed 10 mph    
Max Gust Speed 16 mph    
Visibility 8 miles    
Events      
Averages and records for this station are not official NWS values.
T = Trace of Precipitation, MM = Missing Value Source: NWS Daily Summary

Daily Weather History Graph

Daily Weather History Graph

Search for Another Location

Airport or City:

Trip Planner

Search our weather history database for the weather conditions in past years. The results will help you decide how hot, cold, wet, or windy it might be!

Date:

Astronomy

Mar. 30, 2013 Rise Set
Actual Time 6:36 AM CDT 7:03 PM CDT
Civil Twilight 6:12 AM CDT 7:28 PM CDT
Nautical Twilight 5:43 AM CDT 7:56 PM CDT
Astronomical Twilight 5:14 AM CDT 8:25 PM CDT
Moon 10:54 PM CDT (3/30) 8:45 AM CDT (3/30)
Length of Visible Light 13h 16m
Length of Day
12h 27m
Waning Gibbous, 86% of the Moon is Illuminated
Mar 30
Waning Gibbous
Apr 2
Last Quarter
Apr 10
New
Apr 18
First Quarter
Apr 25
Full

Hourly Weather History & Observations

Time (CDT) Temp. Dew Point Humidity Pressure Visibility Wind Dir Wind Speed Gust Speed Precip Events Conditions
12:56 AM 54.0 °F 44.1 °F 69% 30.21 in 10.0 mi Calm Calm - N/A   Overcast
1:56 AM 51.1 °F 44.1 °F 77% 30.19 in 9.0 mi Calm Calm - N/A   Clear
2:56 AM 50.0 °F 44.1 °F 80% 30.19 in 7.0 mi Calm Calm - N/A   Clear
3:56 AM 48.0 °F 43.0 °F 83% 30.17 in 6.0 mi Calm Calm - N/A   Haze
4:56 AM 48.0 °F 43.0 °F 83% 30.18 in 5.0 mi Calm Calm - N/A   Haze
5:56 AM 48.0 °F 43.0 °F 83% 30.18 in 4.0 mi Calm Calm - N/A   Haze
6:56 AM 46.9 °F 42.1 °F 83% 30.19 in 3.0 mi Calm Calm - N/A   Haze
7:56 AM 53.1 °F 48.0 °F 83% 30.20 in 3.0 mi Calm Calm - N/A   Haze
8:56 AM 61.0 °F 53.1 °F 75% 30.21 in 5.0 mi Variable 3.5 mph - N/A   Haze
9:56 AM 68.0 °F 51.1 °F 55% 30.20 in 10.0 mi West 5.8 mph - N/A   Clear
10:56 AM 72.0 °F 50.0 °F 46% 30.19 in 10.0 mi WSW 5.8 mph - N/A   Clear
11:56 AM 73.9 °F 46.9 °F 38% 30.17 in 10.0 mi SSW 8.1 mph - N/A   Clear
12:56 PM 77.0 °F 46.0 °F 33% 30.14 in 10.0 mi SW 10.4 mph - N/A   Clear
1:56 PM 75.9 °F 46.0 °F 35% 30.12 in 10.0 mi Variable 6.9 mph - N/A   Scattered Clouds
2:56 PM 75.9 °F 48.0 °F 37% 30.10 in 10.0 mi SW 10.4 mph 16.1 mph N/A   Overcast
3:56 PM 75.9 °F 46.9 °F 36% 30.08 in 10.0 mi Variable 6.9 mph - N/A   Mostly Cloudy
4:56 PM 75.0 °F 46.9 °F 37% 30.07 in 10.0 mi SW 9.2 mph 16.1 mph N/A   Mostly Cloudy
5:56 PM 73.9 °F 48.9 °F 41% 30.07 in 10.0 mi SSW 8.1 mph - N/A   Clear
6:56 PM 72.0 °F 48.0 °F 43% 30.06 in 10.0 mi SW 8.1 mph - N/A   Clear
7:56 PM 69.1 °F 53.1 °F 57% 30.06 in 10.0 mi SW 3.5 mph - N/A   Overcast
8:56 PM 66.9 °F 55.0 °F 66% 30.07 in 10.0 mi Variable 4.6 mph - N/A   Clear
9:56 PM 64.0 °F 55.0 °F 73% 30.08 in 10.0 mi Calm Calm - N/A   Clear
10:56 PM 63.0 °F 55.0 °F 75% 30.09 in 10.0 mi Calm Calm - N/A   Clear
11:56 PM 62.1 °F 55.0 °F 78% 30.08 in 8.0 mi Calm Calm - N/A   Partly Cloudy